Temperature
10 8 8 8 9 9 8 8 8 9 10 10 10 10 11 12 12 12 12 12 12 12 12 12 12 12 12 12 12 12 12 12 12 12 12 12 12 12 12 12 11 12 12 12
9 8 9 9 9 9 8 7 8 9 10 10 9 10 11 12 12 12 12 12 11 11 11 11 11 12 12 11 11 11 11 12 12 12 12 12 12 12 12 12 11 11 12 12
8 9 10 9 8 8 8 8 8 8 9 10 9 9 11 12 12 12 12 12 11 11 11 11 11 11 11 11 11 11 11 11 11 11 11 12 11 11 11 11 11 11 11 12
9 10 9 9 8 8 7 9 9 8 7 7 9 7 9 11 11 12 12 12 11 11 11 10 10 10 10 10 11 11 11 11 11 11 11 11 11 11 11 11 11 11 11 11
8 9 9 8 8 8 8 9 8 8 8 7 8 8 9 11 11 11 11 12 11 11 11 10 10 10 10 10 10 10 11 11 11 11 11 11 11 11 11 11 11 11 11 11
9 10 9 8 9 9 9 8 8 9 8 7 9 9 9 10 10 11 11 12 11 11 10 10 10 10 10 10 10 10 10 11 10 11 11 11 11 11 11 11 11 11 11 11
8 9 9 9 8 8 8 6 6 6 6 7 10 9 9 10 11 11 11 11 11 11 10 10 9 9 9 9 10 10 10 10 10 10 11 11 11 11 11 11 11 11 11 11
6 7 9 8 8 7 7 7 5 5 6 7 9 9 9 11 11 11 11 11 11 10 10 9 9 9 9 9 9 10 10 10 10 10 11 11 11 11 11 11 11 11 11 12
5 6 8 9 9 8 7 7 8 6 6 6 8 9 10 11 10 11 10 10 10 10 9 9 9 9 9 9 9 9 9 10 10 10 10 11 11 11 11 11 11 11 11 11
5 4 6 8 9 8 8 7 6 5 5 6 8 9 8 9 9 9 9 9 9 9 9 9 9 8 9 9 9 9 9 9 9 10 10 10 11 11 10 10 10 11 11 11
5 4 5 7 7 7 7 7 6 6 6 5 6 7 9 9 9 9 9 9 9 9 8 8 8 8 8 8 8 9 9 9 9 9 10 10 10 10 10 10 10 11 11 11
5 4 3 5 8 8 7 7 6 4 4 5 5 6 10 9 9 9 9 9 9 8 8 8 8 8 8 8 8 8 8 9 9 9 9 10 10 10 10 10 10 11 11 11
4 3 3 5 6 6 6 6 6 5 5 4 4 6 10 9 9 9 9 8 8 8 8 8 7 7 7 7 7 8 8 8 8 8 9 9 9 10 10 10 10 10 10 11
5 3 3 3 4 5 4 5 5 5 4 4 5 6 8 8 8 8 8 8 8 7 7 7 7 7 7 7 7 7 8 8 8 8 8 9 9 9 10 10 10 10 10 11
4 3 3 4 5 5 5 5 5 5 5 4 5 6 7 7 7 7 8 7 7 7 7 6 6 6 6 6 6 7 7 7 7 8 8 8 8 9 9 10 10 10 10 11
3 2 3 3 5 5 5 5 6 5 6 5 5 6 7 7 8 7 7 7 6 6 6 6 6 6 6 6 6 6 6 7 7 7 7 8 8 8 9 9 10 10 10 10
2 2 2 2 4 4 4 5 6 6 6 6 5 6 6 6 7 6 6 6 6 5 5 5 5 5 5 5 6 6 6 6 7 7 7 7 8 8 8 8 9 9 10 10
2 2 2 2 3 2 5 7 7 6 6 6 6 6 6 6 6 6 6 6 5 5 4 4 5 5 5 5 5 6 6 6 6 6 7 7 7 7 7 8 8 9 9 9
3 2 2 2 2 3 6 7 6 5 5 6 5 5 6 6 5 6 6 5 4 4 4 4 4 4 5 5 5 5 6 6 6 6 6 6 6 7 7 7 8 8 9 9
3 2 1 1 2 2 5 6 6 5 3 5 5 5 5 5 3 4 5 4 4 4 4 4 4 4 4 5 5 5 5 5 5 6 6 6 6 6 7 7 7 8 8 8
1 1 1 1 1 3 5 6 5 3 3 5 5 5 4 4 3 4 4 4 4 3 3 3 4 4 4 4 4 5 5 5 5 5 6 6 6 6 6 7 7 7 7 8
2 1 1 1 1 2 5 5 4 3 5 5 5 4 4 4 4 3 3 3 3 3 3 3 3 4 4 4 4 4 4 5 5 5 5 6 6 6 6 6 7 7 7 7
3 3 3 2 3 5 6 5 5 5 5 4 4 4 3 3 3 3 2 2 2 2 2 2 2 3 3 3 3 4 4 4 5 5 5 5 5 6 6 6 6 7 7 7
4 4 3 3 3 5 6 6 5 5 4 4 3 3 3 2 2 2 2 2 2 2 2 2 2 2 3 3 3 3 4 4 4 5 5 5 5 5 6 6 6 6 7 7
4 3 2 2 3 4 5 5 5 4 4 3 3 2 2 1 1 1 1 1 1 1 1 1 1 2 2 2 3 3 3 3 4 4 4 5 5 5 5 5 6 6 7 7
3 3 2 2 4 3 4 4 4 3 3 2 2 1 1 1 1 0 0 0 0 1 1 1 1 1 2 2 2 3 3 3 3 4 4 4 5 5 5 5 5 6 6 6
Wind_Speed
2 4 5 5 6 9 12 14 17 18 14 13 15 18 16 12 11 10 8 7 7 8 8 8 8 6 5 6 7 9 10 11 9 8 8 9 9 8 8 9 12 14 15 16
5 5 5 8 9 10 12 15 15 15 12 14 16 18 16 11 8 5 5 6 7 7 7 8 7 6 7 7 7 8 10 10 10 9 8 8 8 8 8 9 11 14 15 15
7 7 8 8 9 10 12 11 13 17 17 12 13 11 10 7 5 3 4 4 4 6 6 6 6 6 6 7 8 8 9 9 9 9 7 7 7 7 7 10 11 12 14 15
6 5 6 8 9 10 10 10 14 16 12 7 7 7 8 7 4 3 3 4 4 5 4 5 7 6 6 7 8 8 8 10 10 9 10 10 9 9 9 9 9 12 13 14
6 7 8 9 9 10 8 14 16 16 12 10 10 6 6 4 4 3 2 3 4 3 3 5 6 6 6 6 7 8 8 8 10 10 11 12 10 9 8 9 11 12 12 14
9 7 4 6 8 8 11 12 13 10 6 5 5 4 4 2 4 4 3 2 2 2 2 3 4 5 4 4 5 6 8 8 9 10 11 13 12 11 10 11 12 11 10 12
7 4 1 2 7 7 9 8 5 4 2 4 6 4 3 3 5 5 4 3 2 1 1 3 4 5 4 4 5 5 6 7 9 10 11 12 13 13 13 12 12 12 11 11
6 6 4 4 5 6 8 5 3 4 5 7 8 4 2 4 5 6 6 4 3 4 3 3 4 4 3 3 4 4 5 6 8 9 10 10 12 11 11 12 11 12 10 12
5 6 7 8 6 4 5 4 5 5 7 6 4 3 2 6 8 9 8 7 6 5 4 4 5 4 3 3 3 3 4 5 6 8 9 10 10 11 11 11 11 10 10 11
4 7 9 8 5 3 4 5 4 3 5 5 6 4 3 6 9 11 10 8 8 8 7 5 5 5 4 4 3 3 4 5 5 6 8 9 10 11 11 11 12 11 12 13
5 5 7 6 3 4 3 3 3 4 4 4 6 5 3 6 8 9 9 9 9 8 7 6 5 5 5 5 3 3 3 3 4 4 6 8 9 10 11 12 12 11 12 13
3 4 6 8 8 4 3 3 3 3 5 5 6 7 3 4 7 8 9 9 9 9 8 7 6 5 5 5 4 3 2 3 3 3 4 7 7 8 10 12 12 11 12 13
3 3 6 5 1 1 2 4 6 6 6 7 8 8 5 7 9 9 10 10 9 9 9 8 8 6 5 5 5 4 3 3 2 3 3 5 6 8 9 11 12 11 12 12
5 5 7 9 9 9 11 12 10 8 7 9 12 15 16 13 11 10 10 10 10 10 9 8 8 7 7 6 5 4 3 3 3 2 3 4 6 7 8 8 9 10 11 11
4 6 10 16 18 17 18 18 15 14 13 13 16 17 17 13 11 10 9 10 11 11 10 9 8 7 7 6 5 4 4 3 3 3 3 4 4 5 5 6 8 8 9 10
3 6 9 13 15 15 19 19 16 15 14 15 17 19 13 11 10 9 9 10 11 11 11 9 9 8 7 7 6 5 4 4 3 3 3 3 3 3 4 5 6 7 8 9
4 4 6 9 11 12 12 11 10 10 10 10 13 13 11 11 11 10 10 10 10 11 12 11 10 8 6 6 6 6 4 4 3 3 3 3 3 3 4 3 4 6 8 8
7 6 5 7 8 8 7 3 5 8 9 8 8 8 8 10 11 9 7 8 9 11 12 12 10 9 7 6 5 5 4 4 4 3 3 3 3 3 3 3 4 5 6 7
11 8 5 4 7 11 9 5 3 5 8 5 6 8 9 10 10 7 6 7 9 10 10 10 9 9 8 6 5 5 5 4 4 4 4 3 3 3 3 4 5 4 4 6
8 8 6 6 6 7 5 1 3 4 6 2 5 7 8 8 8 8 9 10 10 10 10 10 9 9 8 6 5 5 5 5 5 5 5 3 3 3 4 4 4 3 3 5
5 7 10 11 9 9 6 1 2 2 5 4 5 6 7 6 7 8 11 11 10 10 10 10 9 9 8 6 5 6 5 5 5 5 4 3 3 4 4 4 4 3 3 4
8 7 8 7 9 10 3 2 3 6 5 5 6 7 8 9 10 10 11 12 12 11 11 11 10 9 8 6 6 6 6 5 5 4 4 4 4 4 3 4 4 4 5 5
9 9 6 9 10 6 2 4 6 6 7 6 6 8 8 9 11 12 11 11 11 11 11 10 10 10 8 7 6 6 6 4 4 3 3 3 4 4 4 5 5 4 5 5
7 8 8 9 10 10 9 8 6 5 6 7 7 8 8 10 11 12 11 11 11 11 10 9 9 9 9 7 7 6 5 4 3 3 3 3 3 4 4 4 4 4 5 6
8 5 8 12 12 11 9 7 6 6 6 7 8 8 8 10 11 11 11 11 11 10 9 8 8 9 9 8 8 6 4 4 3 3 3 3 2 3 3 3 3 4 4 6
10 12 12 13 9 7 7 5 6 7 7 7 7 8 8 8 10 11 10 10 10 10 9 8 9 9 9 9 8 6 5 3 3 3 3 2 2 2 2 2 1 1 3 4
Wind_Direction
260 261 281 303 298 293 301 297 296 298 300 298 290 291 291 281 271 263 253 253 256 260 271 271 262 229 213 210 214 210 202 197 186 183 185 186 185 182 181 175 176 172 170 169
301 276 308 316 304 298 297 297 300 304 307 305 292 290 291 279 267 265 269 257 249 256 266 265 269 233 212 209 217 218 206 197 191 190 189 184 182 184 183 176 177 175 173 171
302 302 324 316 312 306 299 298 305 309 311 296 289 287 287 289 274 252 267 271 266 260 261 267 271 244 221 210 212 217 212 199 195 192 183 182 182 181 185 182 179 180 178 174
298 311 322 318 313 311 302 303 306 303 303 295 294 294 288 293 284 255 259 262 259 260 255 267 272 255 233 219 214 213 209 200 198 193 187 184 192 194 188 182 181 181 180 177
296 312 318 312 314 318 297 302 296 287 280 283 273 268 283 277 285 278 269 273 263 251 244 263 267 261 255 228 220 212 203 204 202 199 194 190 195 201 185 176 180 186 184 181
275 276 294 307 313 310 308 308 294 272 260 265 273 276 290 308 316 318 309 295 296 268 277 280 287 285 269 248 232 215 203 206 205 203 196 192 192 194 185 181 183 190 188 184
320 303 294 327 323 323 332 335 335 337 288 266 315 304 284 335 353 349 347 354 1 304 310 311 311 306 302 288 247 216 207 210 209 205 200 196 194 195 191 187 188 189 191 187
326 313 343 355 332 317 316 322 333 317 302 307 312 281 299 10 16 13 9 1 356 355 3 338 312 302 292 295 273 225 215 219 215 208 203 198 198 198 198 192 192 192 195 189
322 295 314 317 306 300 313 317 301 288 284 278 268 270 300 5 12 11 7 3 357 354 353 342 324 309 304 293 268 233 234 235 225 213 205 201 201 204 201 195 195 193 195 189
292 289 294 299 284 240 251 302 326 317 310 298 293 298 329 5 6 1 359 1 355 356 354 345 328 319 318 311 290 249 238 242 243 230 209 208 205 206 203 199 198 197 195 189
294 283 297 303 286 298 304 298 292 280 273 293 303 304 357 355 356 352 349 353 352 347 346 342 329 326 321 315 305 269 245 245 249 248 222 207 207 205 204 203 203 201 198 190
309 288 280 272 265 261 273 288 297 287 288 280 282 282 316 352 356 349 343 342 344 340 339 338 334 333 333 328 327 314 284 257 254 254 244 215 205 205 207 205 201 201 198 193
311 288 300 302 212 18 306 294 288 280 274 268 271 275 306 337 339 337 337 335 333 336 334 338 341 339 335 332 330 326 320 293 275 271 256 234 210 207 208 207 202 201 198 194
278 246 238 262 282 302 292 287 279 267 264 271 264 278 296 310 318 325 327 328 329 331 331 334 336 336 334 329 326 323 321 318 309 296 273 251 225 216 210 208 204 200 195 194
251 262 261 268 276 279 279 280 274 262 257 262 275 281 289 304 313 318 321 323 324 327 331 332 333 331 328 324 320 322 316 307 299 286 278 271 254 229 214 208 203 197 197 196
239 268 282 276 270 273 275 270 266 263 261 262 274 280 290 303 305 316 323 324 327 329 328 327 326 326 323 322 318 315 311 299 284 274 271 280 270 251 219 208 200 192 195 194
224 251 280 279 294 297 274 256 251 251 251 258 269 280 302 309 317 324 326 328 329 331 331 327 320 317 312 309 312 313 300 293 286 278 262 259 252 259 239 219 206 199 196 188
223 238 260 282 301 261 252 257 271 273 269 265 275 291 305 312 315 312 317 328 328 330 327 321 316 313 307 302 305 306 303 294 283 280 277 246 233 238 238 225 221 210 199 189
215 221 247 265 270 273 269 266 276 283 283 273 287 307 319 324 320 310 333 338 328 324 318 314 311 307 303 300 302 306 302 290 279 277 276 255 234 232 231 224 219 216 201 194
197 204 229 246 259 263 271 49 38 329 279 305 314 312 322 330 319 310 331 328 322 320 317 313 311 309 304 299 300 297 289 280 273 271 266 249 232 225 227 228 220 207 203 197
188 209 225 240 252 264 272 129 76 255 266 332 331 322 317 305 288 302 317 318 317 315 311 311 308 305 300 298 299 289 279 272 270 268 255 244 237 229 225 225 215 199 195 186
198 208 212 218 235 252 220 137 218 249 300 308 310 306 302 301 305 312 314 314 315 315 313 314 311 305 304 304 301 290 283 277 275 273 256 240 234 232 226 217 211 196 186 182
209 210 216 215 231 263 250 244 250 269 287 295 300 305 304 305 306 308 309 310 311 311 312 314 312 308 308 307 305 294 289 286 281 274 265 247 238 227 217 208 207 195 189 186
237 226 244 260 259 271 279 277 280 286 292 297 298 302 306 303 303 304 305 307 308 307 309 311 310 308 309 309 309 296 290 288 282 274 271 260 241 227 214 212 204 200 196 189
240 236 250 260 269 278 273 276 291 295 290 292 294 296 298 300 300 300 301 302 304 305 307 308 307 306 307 311 307 301 293 287 281 275 274 272 246 226 217 220 215 214 219 205
234 239 245 255 257 261 276 289 302 299 297 297 298 299 298 297 297 298 299 299 300 302 304 303 303 304 306 307 304 304 298 286 281 277 271 265 250 238 212 193 224 225 205 198
Height
1467 1468 1465 1462 1461 1460 1458 1454 1449 1441 1435 1432 1427 1420 1413 1410 1409 1408 1408 1409 1410 1410 1410 1411 1411 1411 1412 1414 1416 1418 1419 1423 1426 1429 1433 1437 1440 1444 1447 1451 1456 1460 1464 1469
1466 1464 1460 1459 1459 1458 1457 1453 1446 1437 1432 1430 1424 1416 1409 1404 1404 1404 1404 1403 1404 1405 1406 1406 1406 1405 1407 1409 1410 1412 1414 1417 1420 1424 1428 1432 1436 1439 1443 1447 1450 1455 1460 1464
1467 1462 1459 1459 1458 1457 1455 1451 1446 1441 1432 1427 1423 1415 1407 1401 1400 1400 1401 1401 1401 1401 1401 1402 1402 1402 1403 1404 1406 1407 1410 1412 1415 1420 1424 1428 1432 1435 1438 1440 1445 1451 1455 1459
1463 1459 1459 1458 1457 1455 1453 1446 1443 1439 1438 1433 1427 1425 1409 1402 1398 1397 1397 1398 1398 1399 1399 1399 1399 1399 1399 1400 1401 1403 1405 1408 1412 1415 1418 1421 1424 1427 1430 1435 1440 1446 1450 1455
1464 1459 1458 1458 1455 1453 1450 1444 1440 1436 1433 1432 1422 1423 1410 1400 1398 1396 1395 1395 1395 1396 1397 1397 1397 1396 1396 1396 1397 1399 1401 1404 1407 1410 1413 1417 1420 1423 1427 1431 1435 1440 1445 1450
1462 1458 1457 1456 1454 1452 1448 1443 1436 1429 1429 1434 1418 1418 1411 1402 1399 1395 1393 1394 1394 1394 1395 1395 1395 1394 1393 1393 1393 1394 1396 1399 1402 1405 1408 1412 1415 1418 1422 1426 1430 1435 1440 1444
1462 1456 1455 1455 1454 1451 1450 1451 1451 1446 1439 1430 1412 1413 1410 1400 1397 1395 1394 1393 1393 1393 1393 1393 1392 1391 1390 1390 1389 1390 1392 1394 1397 1400 1403 1407 1410 1414 1417 1421 1425 1430 1434 1438
1473 1465 1456 1456 1457 1457 1454 1453 1461 1461 1448 1431 1417 1414 1407 1398 1396 1395 1394 1393 1392 1392 1392 1392 1391 1389 1388 1387 1387 1387 1388 1390 1393 1395 1399 1402 1406 1410 1414 1417 1421 1425 1429 1433
1479 1470 1457 1456 1454 1455 1454 1453 1450 1453 1445 1439 1421 1410 1403 1399 1397 1396 1395 1393 1392 1392 1391 1391 1390 1388 1387 1385 1384 1384 1385 1387 1389 1391 1394 1398 1401 1405 1409 1412 1417 1421 1426 1430
1478 1477 1462 1455 1452 1451 1452 1452 1454 1456 1454 1443 1423 1413 1411 1405 1402 1400 1397 1396 1394 1392 1391 1390 1388 1387 1385 1384 1383 1382 1382 1383 1384 1387 1389 1392 1395 1399 1404 1408 1412 1417 1421 1426
1478 1479 1467 1458 1453 1453 1452 1453 1453 1453 1450 1449 1438 1423 1408 1406 1404 1403 1400 1397 1396 1393 1390 1388 1386 1385 1383 1382 1381 1380 1380 1380 1382 1383 1385 1388 1391 1395 1398 1403 1407 1412 1416 1421
1478 1478 1472 1459 1449 1448 1449 1451 1453 1460 1455 1446 1443 1427 1407 1405 1403 1402 1400 1398 1396 1393 1390 1387 1385 1383 1381 1380 1379 1378 1378 1378 1378 1380 1381 1384 1387 1391 1393 1397 1402 1407 1411 1415
1479 1480 1475 1458 1454 1452 1452 1450 1451 1452 1451 1447 1442 1426 1406 1404 1404 1403 1401 1398 1395 1392 1389 1386 1384 1382 1380 1378 1376 1375 1375 1376 1376 1377 1378 1380 1383 1386 1388 1392 1397 1401 1406 1410
1476 1476 1477 1471 1460 1457 1455 1451 1449 1450 1450 1443 1432 1420 1410 1407 1405 1402 1400 1397 1394 1392 1389 1385 1383 1380 1378 1376 1375 1373 1373 1373 1374 1374 1375 1376 1378 1381 1384 1387 1391 1396 1400 1404
1474 1473 1467 1461 1455 1452 1448 1444 1442 1442 1439 1437 1425 1418 1410 1407 1404 1401 1398 1396 1393 1390 1387 1384 1382 1379 1377 1375 1372 1371 1371 1371 1371 1372 1372 1373 1375 1377 1380 1382 1385 1390 1394 1399
1471 1470 1465 1457 1449 1445 1440 1433 1431 1430 1427 1425 1420 1413 1407 1405 1402 1399 1396 1394 1391 1388 1385 1382 1379 1377 1375 1373 1371 1369 1368 1368 1368 1369 1369 1370 1371 1373 1375 1377 1380 1384 1389 1393
1469 1469 1465 1456 1445 1442 1435 1423 1421 1420 1417 1418 1416 1410 1405 1403 1400 1397 1395 1392 1390 1387 1383 1380 1377 1374 1372 1371 1368 1367 1366 1365 1365 1365 1366 1367 1367 1369 1370 1372 1376 1379 1383 1387
1463 1465 1463 1456 1451 1449 1425 1414 1413 1412 1411 1410 1408 1405 1403 1401 1398 1395 1393 1391 1388 1385 1382 1378 1375 1372 1369 1367 1366 1365 1364 1363 1362 1362 1363 1364 1364 1365 1367 1369 1371 1375 1379 1382
1454 1459 1459 1456 1451 1435 1418 1412 1411 1412 1410 1406 1405 1403 1401 1399 1395 1392 1390 1389 1387 1384 1380 1376 1372 1369 1367 1365 1363 1362 1361 1361 1360 1360 1360 1360 1361 1362 1363 1365 1368 1371 1373 1377
1448 1453 1457 1453 1449 1436 1415 1410 1408 1411 1412 1404 1402 1401 1400 1398 1398 1392 1388 1386 1383 1380 1376 1372 1369 1366 1364 1362 1361 1359 1358 1358 1357 1357 1357 1357 1358 1359 1360 1362 1363 1366 1369 1373
1449 1451 1451 1448 1443 1427 1411 1409 1410 1417 1412 1403 1400 1400 1398 1397 1396 1392 1387 1384 1381 1377 1373 1369 1365 1362 1360 1359 1357 1356 1355 1354 1354 1354 1354 1354 1355 1356 1357 1359 1360 1362 1365 1369
1439 1442 1441 1440 1438 1425 1407 1407 1410 1408 1403 1401 1399 1398 1396 1394 1391 1388 1385 1381 1377 1373 1369 1365 1362 1359 1357 1355 1354 1352 1351 1351 1351 1351 1351 1350 1351 1353 1354 1356 1357 1359 1361 1365
1426 1425 1423 1422 1416 1404 1403 1403 1402 1402 1400 1398 1397 1395 1393 1390 1387 1384 1381 1377 1373 1370 1366 1362 1359 1355 1353 1352 1350 1349 1348 1348 1347 1347 1347 1347 1348 1349 1350 1352 1353 1355 1358 1360
1415 1414 1414 1411 1403 1400 1399 1398 1398 1398 1397 1395 1394 1392 1389 1387 1383 1380 1377 1373 1369 1366 1363 1359 1355 1352 1349 1348 1347 1346 1345 1344 1343 1342 1342 1342 1343 1345 1346 1348 1349 1351 1353 1356
1410 1409 1408 1405 1399 1397 1395 1394 1394 1393 1392 1391 1390 1388 1386 1383 1379 1376 1373 1369 1365 1362 1359 1356 1352 1349 1346 1344 1343 1341 1341 1340 1339 1339 1339 1339 1340 1341 1342 1344 1346 1348 1350 1352
1401 1402 1402 1397 1393 1393 1391 1390 1390 1389 1387 1386 1385 1382 1380 1379 1375 1372 1368 1365 1362 1358 1355 1352 1348 1346 1343 1341 1339 1338 1337 1337 1336 1335 1335 1336 1336 1337 1338 1340 1342 1345 1347 1350